Change the Weather History Date:

Tuesday, December 27, 2011

  Actual Average Record
Temperature  
Mean Temperature 34 °F -  
Max Temperature 37 °F 30 °F 61 °F (2008)
Min Temperature 30 °F 15 °F -12 °F (1950)
Degree Days  
Heating Degree Days 32    
Moisture  
Dew Point 30 °F    
Average Humidity 88    
Maximum Humidity 100    
Minimum Humidity 57    
Precipitation  
Precipitation 0.49 in - - ()
Sea Level Pressure  
Sea Level Pressure 29.51 in    
Wind  
Wind Speed 4 mph (SW)    
Max Wind Speed 15 mph    
Max Gust Speed 21 mph    
Visibility 4 miles    
Events Fog , Rain , Snow    
Averages and records for this station are not official NWS values.
T = Trace of Precipitation, MM = Missing Value Source: NWS Daily Summary

Daily Weather History Graph

Daily Weather History Graph

Search for Another Location

Airport or City:

Trip Planner

Search our weather history database for the weather conditions in past years. The results will help you decide how hot, cold, wet, or windy it might be!

Date:

Astronomy

Dec. 27, 2011 Rise Set
Actual Time 7:46 AM EST 4:57 PM EST
Civil Twilight 7:15 AM EST 5:28 PM EST
Nautical Twilight 6:40 AM EST 6:03 PM EST
Astronomical Twilight 6:06 AM EST 6:37 PM EST
Moon 9:38 AM EST (12/27) 8:31 PM EST (12/27)
Length of Visible Light 10h 13m
Length of Day
9h 10m
Waxing Crescent, 11% of the Moon is Illuminated
Dec 27
Waxing Crescent
Jan 1
First Quarter
Jan 9
Full
Jan 16
Last Quarter
Jan 23
New

Hourly Weather History & Observations

Time (EST) Temp. Windchill Dew Point Humidity Pressure Visibility Wind Dir Wind Speed Gust Speed Precip Events Conditions
12:53 AM 32.0 °F - 25.0 °F 75% 30.01 in 10.0 mi Calm Calm - N/A   Clear
1:53 AM 30.9 °F - 25.0 °F 79% 29.98 in 10.0 mi Calm Calm - N/A   Clear
3:53 AM 33.1 °F 30.0 °F 25.0 °F 72% 29.89 in 10.0 mi SE 3.5 mph - N/A   Clear
4:53 AM 34.0 °F - 24.1 °F 67% 29.84 in 10.0 mi Calm Calm - N/A   Clear
5:53 AM 35.1 °F 31.0 °F 24.1 °F 64% 29.81 in 10.0 mi East 4.6 mph - N/A   Overcast
7:53 AM 36.0 °F - 23.0 °F 59% 29.78 in 10.0 mi Calm Calm - N/A   Overcast
8:53 AM 36.0 °F 31.1 °F 24.1 °F 62% 29.75 in 10.0 mi Variable 5.8 mph - N/A   Overcast
9:53 AM 37.9 °F - 24.1 °F 57% 29.69 in 10.0 mi Calm Calm - N/A   Overcast
10:36 AM 37.4 °F 33.8 °F 28.4 °F 70% 29.64 in 6.0 mi South 4.6 mph - 0.01 in Snow Light Snow
10:53 AM 35.1 °F - 30.0 °F 82% 29.65 in 1.8 mi Calm Calm - 0.01 in Snow Light Snow
10:55 AM 35.6 °F 31.7 °F 30.2 °F 81% 29.62 in 1.5 mi Variable 4.6 mph - 0.01 in Snow Light Snow
11:11 AM 33.8 °F - 32.0 °F 93% 29.60 in 1.8 mi Calm Calm - 0.02 in Snow Light Snow
11:27 AM 33.8 °F - 32.0 °F 93% 29.58 in 0.5 mi Calm Calm - 0.03 in Fog , Snow Snow
11:53 AM 33.1 °F 28.7 °F 30.9 °F 92% 29.58 in 0.8 mi ESE 4.6 mph - 0.04 in Snow Light Snow
12:04 PM 33.8 °F 29.6 °F 30.2 °F 87% 29.53 in 0.8 mi Variable 4.6 mph - 0.00 in Snow Light Snow
12:31 PM 33.8 °F 30.8 °F 30.2 °F 87% 29.49 in 1.0 mi Variable 3.5 mph - 0.02 in Snow Light Snow
12:53 PM 33.1 °F 30.0 °F 32.0 °F 96% 29.50 in 3.0 mi Variable 3.5 mph - 0.04 in Snow Light Snow
1:07 PM 33.8 °F 29.6 °F 30.2 °F 87% 29.44 in 5.0 mi Variable 4.6 mph - 0.03 in Rain Light Rain
1:17 PM 33.8 °F 30.8 °F 30.2 °F 87% 29.44 in 5.0 mi Variable 3.5 mph - 0.05 in Rain Light Rain
1:53 PM 34.0 °F 29.8 °F 32.0 °F 92% 29.42 in 4.0 mi ESE 4.6 mph - 0.13 in Rain Light Rain
2:18 PM 35.6 °F - 33.8 °F 93% 29.37 in 4.0 mi Calm Calm - 0.03 in Rain Light Rain
2:23 PM 35.6 °F - 33.8 °F 93% 29.36 in 4.0 mi Calm Calm - 0.04 in Rain Light Rain
2:34 PM 35.6 °F 31.7 °F 33.8 °F 93% 29.36 in 3.0 mi SE 4.6 mph - 0.05 in Rain Light Rain
2:53 PM 35.1 °F 32.2 °F 34.0 °F 96% 29.39 in 2.0 mi ESE 3.5 mph - 0.08 in Rain Rain
3:07 PM 35.6 °F 32.8 °F 33.8 °F 93% 29.35 in 3.0 mi ESE 3.5 mph - 0.02 in Rain Light Rain
3:53 PM 36.0 °F - 35.1 °F 97% 29.37 in 4.0 mi Calm Calm - 0.05 in Rain Light Rain
4:20 PM 35.6 °F - 33.8 °F 93% 29.34 in 1.8 mi Calm Calm - 0.02 in Rain Light Rain
4:32 PM 35.6 °F - 35.6 °F 100% 29.33 in 0.5 mi Calm Calm - 0.03 in Fog , Rain Light Rain
4:53 PM 36.0 °F - 34.0 °F 93% 29.36 in 2.0 mi Calm Calm - 0.05 in Rain Light Rain
4:58 PM 35.6 °F - 33.8 °F 93% 29.33 in 3.0 mi Calm Calm - 0.00 in Rain Light Rain
5:01 PM 35.6 °F - 33.8 °F 93% 29.33 in 2.5 mi Calm Calm - 0.01 in Rain Light Rain
5:18 PM 35.6 °F 31.7 °F 33.8 °F 93% 29.33 in 3.0 mi SSW 4.6 mph - 0.03 in Rain Light Rain
5:45 PM 35.6 °F 29.2 °F 33.8 °F 93% 29.34 in 3.0 mi West 8.1 mph - 0.05 in Rain Light Rain
6:53 PM 33.1 °F 24.9 °F 32.0 °F 96% 29.40 in 2.0 mi WSW 10.4 mph - 0.04 in Snow Light Snow
7:02 PM 33.8 °F 25.3 °F 30.2 °F 87% 29.38 in 1.5 mi WSW 11.5 mph - 0.00 in Snow Light Snow
7:53 PM 32.0 °F 22.5 °F 30.9 °F 96% 29.42 in 1.5 mi WSW 12.7 mph - 0.01 in Snow Light Snow
8:19 PM 32.0 °F 22.1 °F 30.2 °F 93% 29.40 in 2.5 mi WSW 13.8 mph - 0.01 in Snow Light Snow
8:29 PM 32.0 °F 23.0 °F 30.2 °F 93% 29.41 in 3.0 mi WSW 11.5 mph - 0.01 in Snow Light Snow
8:40 PM 32.0 °F 23.6 °F 30.2 °F 93% 29.41 in 2.0 mi WSW 10.4 mph - 0.01 in Snow Light Snow
8:53 PM 32.0 °F 24.2 °F 30.9 °F 96% 29.45 in 2.0 mi WSW 9.2 mph - 0.01 in Snow Light Snow
9:12 PM 32.0 °F 23.6 °F 30.2 °F 93% 29.42 in 1.8 mi WSW 10.4 mph - 0.01 in Snow Light Snow
9:53 PM 32.0 °F 23.6 °F 30.9 °F 96% 29.47 in 2.0 mi West 10.4 mph - 0.01 in Snow Light Snow
10:01 PM 32.0 °F 21.6 °F 30.2 °F 93% 29.45 in 4.0 mi WSW 15.0 mph 20.7 mph 0.01 in Snow Light Snow
10:11 PM 32.0 °F 22.1 °F 30.2 °F 93% 29.45 in 1.8 mi WSW 13.8 mph - 0.01 in Snow Light Snow
10:22 PM - - - N/A% 29.46 in 2.5 mi West 13.8 mph 20.7 mph 0.01 in   Unknown
10:43 PM - - - N/A% 29.47 in 1.8 mi West 10.4 mph 20.7 mph 0.01 in   Unknown
10:50 PM - - - N/A% 29.47 in 3.0 mi West 13.8 mph - 0.01 in   Unknown
10:51 PM - - - N/A% 29.47 in 3.0 mi West 13.8 mph - 0.01 in   Unknown
11:05 PM 32.0 °F 22.5 °F 30.2 °F 93% 29.47 in 2.0 mi West 12.7 mph - 0.01 in Snow Light Snow
11:20 PM 32.0 °F 22.1 °F 30.2 °F 93% 29.48 in 1.5 mi West 13.8 mph - 0.01 in Snow Light Snow
11:32 PM 32.0 °F 22.5 °F 30.2 °F 93% 29.48 in 3.0 mi West 12.7 mph - 0.01 in Snow Light Snow
11:40 PM 32.0 °F 23.0 °F 30.2 °F 93% 29.49 in 1.8 mi West 11.5 mph - 0.01 in Snow Light Snow
11:53 PM 32.0 °F 23.0 °F 30.9 °F 96% 29.52 in 2.0 mi West 11.5 mph 19.6 mph 0.01 in Snow Light Snow